[[[{"header":{"parameterUnit":"kt","parameterCategory":2,"dx":1,"dy":1,"la1":30.253999710083008,"la2":30.299108505249023,"lo1":-89.0895004272461,"lo2":-89.04439544677734,"nx":28,"ny":28,"refTime":"2022-10-12T21:00:00:Z","depth":0,"parameterNumber":1,"parameterNumberName":"U-component_of_WINDS"},"data":[-0.7441,-0.7429,-0.7373,-0.7335,-0.7277,-0.7242,-0.7212,-0.7167,-0.7116,-0.707,-0.7033,-0.6975,-0.6904,-0.6848,-0.6807,-0.6782,-0.6772,-0.6811,-0.6776,-0.6649,-0.6628,-0.6608,-0.6608,-0.6808,-0.6808,-0.6918,-0.6919,-0.692,-0.7361,-0.7304,-0.7265,-0.719,-0.7157,-0.7086,-0.702,-0.6999,-0.697,-0.6906,-0.6865,-0.682,-0.6776,-0.6688,-0.6638,-0.6635,-0.66,-0.6626,-0.6628,-0.6619,-0.648,-0.648,-0.6656,-0.6656,-0.6656,-0.6656,-0.6656,-0.6655,-0.7201,-0.7195,-0.7115,-0.7072,-0.7018,-0.6968,-0.6953,-0.688,-0.6842,-0.678,-0.6717,-0.6683,-0.6609,-0.6518,-0.6473,-0.6447,-0.6408,-0.6419,-0.6423,-0.6429,-0.6446,-0.6306,-0.6434,-0.6433,-0.6433,-0.6432,-0.6432,0,-0.7067,-0.702,-0.6977,-0.6918,-0.6883,-0.6832,-0.6775,-0.6764,-0.6641,-0.6615,-0.6572,-0.6538,-0.6472,-0.6427,-0.6365,-0.6314,-0.624,-0.6223,-0.6232,-0.6266,-0.6306,-0.6292,-0.6074,-0.6221,-0.6219,-0.6217,-0.6216,-0.6215,-0.6907,-0.6905,-0.679,-0.6769,-0.6722,-0.6688,-0.6656,-0.6546,-0.6518,-0.6432,-0.6433,-0.6384,-0.634,-0.6282,-0.6197,-0.6147,-0.6111,-0.6175,-0.6103,-0.6136,-0.612,-0.6124,-0.6126,-0.6193,-0.6196,-0.6198,-0.62,0,-0.6824,-0.6726,-0.6703,-0.6588,-0.656,-0.6564,-0.6467,-0.6456,-0.6384,-0.636,-0.6347,-0.6236,-0.6196,-0.6099,-0.6032,-0.5984,-0.5997,-0.5959,-0.6024,-0.6013,-0.6065,-0.6065,-0.6237,-0.6257,-0.6042,-0.6044,-0.6046,0,-0.6652,-0.6652,-0.6507,-0.6498,-0.6496,-0.6384,-0.6385,-0.6323,-0.6254,-0.6233,-0.6129,-0.6113,-0.5989,-0.5959,-0.5886,-0.5878,-0.5863,-0.5828,-0.581,-0.584,-0.5846,-0.5828,-0.5821,-0.576,-0.5759,-0.5758,-0.5758,0,-0.6536,-0.6455,-0.6439,-0.6405,-0.6282,-0.6277,-0.6226,-0.6146,-0.6115,-0.6058,-0.6038,-0.598,-0.5949,-0.5908,-0.5816,-0.5771,-0.58,-0.572,-0.5765,-0.5768,-0.578,-0.5781,-0.5955,-0.5756,-0.5756,-0.5756,-0.5756,0,-0.6383,-0.6325,-0.6315,-0.6211,-0.6194,-0.6182,-0.6118,-0.6084,-0.6008,-0.596,-0.5914,-0.5834,-0.5813,-0.5742,-0.5714,-0.5684,-0.5661,-0.5622,-0.5624,-0.562,-0.5545,-0.5663,-0.5833,-0.585,-0.5613,-0.5612,-0.5611,0,-0.6281,-0.6242,-0.6145,-0.6137,-0.6106,-0.5991,-0.5977,-0.591,-0.5845,-0.5811,-0.5738,-0.5699,-0.5624,-0.5599,-0.5597,-0.5522,-0.5562,-0.5513,-0.5473,-0.5473,-0.5503,-0.5657,-0.5709,-0.5805,-0.5594,-0.5596,-0.5597,0,-0.6189,-0.6035,-0.604,-0.5997,-0.5888,-0.586,-0.5842,-0.5777,-0.576,-0.5694,-0.5679,-0.5618,-0.5562,-0.5519,-0.5446,-0.545,-0.5532,-0.5388,-0.5384,-0.5423,-0.5574,-0.5626,-0.5642,-0.5483,-0.5485,-0.5486,-0.5584,0,-0.599,-0.5955,-0.5962,-0.5867,-0.5829,-0.5816,-0.5708,-0.5682,-0.5616,-0.5546,-0.5519,-0.5436,-0.537,-0.5359,-0.5293,-0.533,-0.531,-0.5248,-0.5175,-0.5274,-0.5304,-0.5316,-0.514,-0.5137,-0.5134,-0.5132,0,0,-0.592,-0.5867,-0.5758,-0.5735,-0.5696,-0.5575,-0.5572,-0.552,-0.5418,-0.5395,-0.5352,-0.5256,-0.5189,-0.5169,-0.5191,-0.5162,-0.5161,-0.5129,-0.5226,-0.5237,-0.5247,-0.5281,-0.5295,-0.5128,-0.5127,-0.5126,-0.5126,0,-0.5825,-0.5756,-0.5751,-0.5692,-0.56,-0.5525,-0.5525,-0.5412,-0.5367,-0.5336,-0.5239,-0.5209,-0.5132,-0.5077,-0.5039,-0.5127,-0.5057,-0.5114,-0.5201,-0.5206,-0.522,-0.5232,-0.5269,-0.5283,-0.512,-0.512,-0.512,0,-0.572,-0.5636,-0.562,-0.5522,-0.546,-0.5429,-0.5325,-0.5294,-0.527,-0.5139,-0.5112,-0.5051,-0.4966,-0.4957,-0.4949,-0.491,-0.497,-0.4929,-0.4941,-0.4939,-0.4939,-0.4956,-0.4971,-0.4772,-0.4772,-0.4771,0,0,-0.5653,-0.5618,-0.5492,-0.5493,-0.5461,-0.5348,-0.5319,-0.5249,-0.5174,-0.5144,-0.5064,-0.4995,-0.4949,-0.4922,-0.4873,-0.4877,-0.4854,-0.4891,-0.4907,-0.4921,-0.4927,-0.493,-0.4947,-0.4768,-0.4768,-0.4768,0,0,-0.5621,-0.5476,-0.5421,-0.5407,-0.5339,-0.5216,-0.5222,-0.5152,-0.5096,-0.5086,-0.4966,-0.4942,-0.4931,-0.4875,-0.4849,-0.4846,-0.4774,-0.4778,-0.4883,-0.4902,-0.4918,-0.4934,-0.4732,0,0,0,0,0,-0.5468,-0.5493,-0.5445,-0.5427,-0.53,-0.5243,-0.5226,-0.5127,-0.508,-0.5087,-0.5009,-0.4933,-0.4837,-0.4812,-0.4796,-0.4826,-0.4731,-0.4738,-0.4744,-0.488,-0.4901,-0.4919,0,0,0,0,0,0,-0.546,-0.5437,-0.5444,-0.5324,-0.5295,-0.5241,-0.514,-0.5113,-0.5077,-0.5063,-0.4951,-0.493,-0.4845,-0.4813,-0.48,-0.4831,-0.4736,-0.4734,-0.4739,-0.4744,-0.4887,-0.4905,-0.492,0,0,0,0,0,-0.5453,-0.5434,-0.5258,-0.5323,-0.5297,-0.5172,-0.5138,-0.5115,-0.5085,-0.4963,-0.4939,-0.5014,-0.4848,-0.4831,-0.4805,-0.484,-0.4744,-0.4739,-0.4737,-0.4742,-0.4746,-0.4896,0,0,0,0,0,0,-0.5448,-0.5414,-0.525,-0.5239,-0.5305,-0.5173,-0.5149,-0.5117,-0.4985,-0.4962,-0.502,-0.5011,-0.4851,-0.4837,-0.4824,-0.4848,-0.4751,-0.4746,-0.4743,-0.4741,-0.4744,-0.4747,0,0,0,0,0,0,-0.5423,-0.5405,-0.5244,-0.5227,-0.5213,-0.5175,-0.5153,-0.5116,-0.4985,-0.5049,-0.5037,-0.5018,-0.4871,-0.4841,-0.4831,-0.4776,-0.4756,-0.4751,-0.4748,-0.4747,-0.4743,-0.4746,0,0,0,0,0,0,-0.5413,-0.5398,-0.5229,-0.5219,-0.5206,-0.5071,-0.514,-0.5016,-0.497,-0.5057,-0.4963,-0.496,-0.4878,-0.4865,-0.4836,-0.4787,-0.4779,-0.4756,-0.4753,-0.4751,-0.4749,0,0,0,0,0,0,0,-0.5406,-0.5532,-0.5318,-0.5212,-0.52,-0.5134,-0.5131,-0.5127,-0.4969,-0.4967,-0.4964,-0.4961,-0.478,-0.4776,-0.4771,-0.4796,0,0,-0.4756,-0.4754,0,0,0,0,0,0,0,0,-0.5536,-0.5533,-0.5317,-0.5315,-0.5313,-0.5133,-0.5131,-0.5128,-0.4969,-0.4967,-0.4965,-0.4962,-0.4779,-0.4775,-0.4771,0,0,0,0,0,0,0,0,0,0,0,0,0,0,0,-0.5317,-0.5315,0,-0.5133,-0.5131,-0.5129,-0.4969,-0.4967,-0.4965,-0.4963,-0.4778,-0.4775,-0.4772,0,0,0,0,0,0,0,0,0,0,0,0,0,0,0,0,0,0,0,0,0,0,0,0,0,0,0,0,0,0,0,0,0,0,0,0,0,0,0,0,0,0,0,0,0,0,0,0,0,0,0,0,0,0,0,0,0,0,0,0,0,0,0,0,0,0,0,0,0]}],[{"header":{"parameterUnit":"kt","parameterCategory":2,"dx":1,"dy":1,"la1":30.253999710083008,"la2":30.299108505249023,"lo1":-89.0895004272461,"lo2":-89.04439544677734,"nx":28,"ny":28,"refTime":"2022-10-12T21:00:00:Z","depth":0,"parameterNumber":2,"parameterNumberName":"V-component_of_WINDS"},"data":[1.5008,1.5027,1.4997,1.5004,1.4978,1.4976,1.4965,1.4948,1.4927,1.492,1.491,1.4881,1.4846,1.4825,1.4811,1.4798,1.4792,1.482,1.4798,1.4704,1.4688,1.4674,1.4665,1.4821,1.4821,1.4897,1.4898,1.4899,1.4935,1.491,1.4907,1.4882,1.4877,1.4832,1.4808,1.4806,1.4806,1.4781,1.4771,1.4762,1.4751,1.4705,1.4688,1.4693,1.4669,1.469,1.4686,1.468,1.458,1.4572,1.471,1.471,1.471,1.471,1.471,1.471,1.4794,1.4808,1.4776,1.4771,1.4751,1.4735,1.4742,1.4706,1.4701,1.4682,1.4648,1.4646,1.4614,1.4579,1.456,1.4556,1.4526,1.4539,1.4541,1.4543,1.4549,1.4431,1.4553,1.4553,1.4552,1.4552,1.4551,0,1.468,1.4653,1.4649,1.4635,1.463,1.4616,1.4598,1.4602,1.4536,1.4535,1.453,1.4521,1.4505,1.4495,1.4473,1.445,1.4398,1.4392,1.44,1.4412,1.4426,1.4412,1.4243,1.4388,1.4386,1.4385,1.4384,1.4384,1.4529,1.4552,1.4505,1.4505,1.4488,1.4491,1.4486,1.4426,1.4422,1.4391,1.4406,1.4397,1.4386,1.4383,1.4339,1.4326,1.4299,1.4357,1.4297,1.4309,1.4292,1.4288,1.4287,1.4368,1.437,1.4371,1.4373,0,1.4446,1.4397,1.4422,1.4374,1.4362,1.4388,1.4344,1.4356,1.4321,1.4331,1.433,1.4273,1.4269,1.4216,1.4202,1.4173,1.4207,1.4186,1.4216,1.4206,1.4248,1.4242,1.4403,1.4418,1.4263,1.4265,1.4266,0,1.4295,1.4328,1.4252,1.4269,1.4302,1.4241,1.4275,1.4247,1.422,1.4228,1.4164,1.4172,1.4104,1.4104,1.4063,1.4082,1.4081,1.4058,1.4045,1.406,1.4062,1.4052,1.4042,1.4025,1.4025,1.4024,1.4023,0,1.4165,1.4166,1.4194,1.4186,1.4137,1.4152,1.4132,1.4102,1.4098,1.4085,1.408,1.407,1.4063,1.4054,1.4,1.3961,1.4026,1.396,1.4001,1.4002,1.4014,1.4012,1.4174,1.4022,1.4022,1.4022,1.4021,0,1.4033,1.4023,1.4075,1.4031,1.4033,1.4054,1.4038,1.4044,1.4016,1.3991,1.3981,1.393,1.3948,1.3886,1.3907,1.387,1.3865,1.3847,1.3849,1.3841,1.3771,1.3861,1.4026,1.4037,1.3841,1.384,1.3838,0,1.3893,1.3934,1.3881,1.3933,1.3943,1.3867,1.3888,1.3867,1.3836,1.3839,1.3804,1.3808,1.3752,1.3745,1.3764,1.3726,1.3775,1.3719,1.3715,1.3716,1.3718,1.3871,1.3905,1.3997,1.3819,1.3821,1.3822,0,1.3778,1.3721,1.3734,1.372,1.3685,1.3695,1.3721,1.3712,1.3716,1.3702,1.3718,1.3728,1.3682,1.3674,1.3632,1.3654,1.374,1.3602,1.36,1.3623,1.3807,1.3838,1.3854,1.3706,1.3709,1.3711,1.3807,0,1.3578,1.3594,1.363,1.3607,1.3607,1.3639,1.3583,1.359,1.3548,1.3514,1.3541,1.3513,1.3503,1.3511,1.3472,1.3542,1.352,1.3473,1.3404,1.3508,1.3537,1.355,1.3364,1.3362,1.336,1.3358,0,0,1.3452,1.3474,1.3417,1.344,1.3436,1.3357,1.3395,1.3382,1.3359,1.3356,1.3318,1.3326,1.3304,1.3342,1.337,1.337,1.3374,1.3342,1.346,1.3472,1.3483,1.3515,1.353,1.3355,1.3354,1.3354,1.3353,0,1.3366,1.3349,1.3389,1.3373,1.3348,1.331,1.3321,1.3281,1.3261,1.329,1.3222,1.3233,1.3244,1.3226,1.3219,1.3337,1.3283,1.334,1.3419,1.3443,1.3457,1.347,1.3505,1.3519,1.3348,1.3349,1.3349,0,1.3237,1.3209,1.3223,1.3214,1.3197,1.3212,1.3126,1.3148,1.3157,1.307,1.3099,1.3076,1.305,1.3097,1.3116,1.3082,1.3203,1.3158,1.3169,1.3168,1.3188,1.3205,1.3221,1.3016,1.3015,1.3015,0,0,1.317,1.3186,1.3136,1.3192,1.3185,1.3131,1.3135,1.3094,1.3074,1.3066,1.3034,1.3016,1.302,1.3025,1.3027,1.3088,1.3074,1.3119,1.3135,1.3148,1.3154,1.3178,1.3195,1.3011,1.3011,1.3011,0,0,1.3137,1.3081,1.3043,1.3101,1.3085,1.3039,1.3073,1.3025,1.3022,1.3011,1.2943,1.2935,1.2979,1.2959,1.2918,1.3,1.2934,1.2942,1.3011,1.303,1.3045,1.3046,1.2824,0,0,0,0,0,1.3019,1.3088,1.3054,1.3056,1.3045,1.3058,1.3056,1.3001,1.2953,1.2981,1.2947,1.2891,1.2921,1.2883,1.2885,1.293,1.2965,1.2973,1.2981,1.3083,1.3103,1.3121,0,0,0,0,0,0,1.3019,1.3021,1.3052,1.301,1.3007,1.3055,1.2962,1.2948,1.2949,1.2937,1.29,1.289,1.2843,1.2879,1.2881,1.2925,1.2823,1.2968,1.2975,1.2982,1.309,1.3107,1.3121,0,0,0,0,0,1.3019,1.302,1.3018,1.3009,1.3006,1.2949,1.2959,1.2947,1.2946,1.2893,1.2882,1.2904,1.2846,1.2844,1.288,1.2925,1.2821,1.2822,1.2973,1.2978,1.2983,1.3098,0,0,0,0,0,0,1.3019,1.3009,1.3016,1.3013,1.2979,1.2945,1.2938,1.2946,1.29,1.289,1.2894,1.2886,1.2849,1.2847,1.2846,1.2928,1.2819,1.282,1.2821,1.2977,1.2981,1.2985,0,0,0,0,0,0,1.3008,1.3008,1.3014,1.298,1.2972,1.2942,1.2936,1.296,1.2901,1.2903,1.2895,1.2891,1.285,1.2849,1.2848,1.2887,1.2818,1.2819,1.282,1.282,1.2981,1.2984,0,0,0,0,0,0,1.3007,1.3006,1.298,1.2975,1.2968,1.293,1.2962,1.2953,1.2872,1.2907,1.2863,1.2859,1.2854,1.2852,1.285,1.289,1.2888,1.2818,1.2819,1.2819,1.2819,0,0,0,0,0,0,0,1.3006,1.3023,1.3034,1.297,1.2964,1.2986,1.2985,1.2984,1.2871,1.2868,1.2864,1.2861,1.2811,1.2813,1.2814,1.2893,0,0,1.2818,1.2818,0,0,0,0,0,0,0,0,1.3022,1.3023,1.3034,1.3033,1.3032,1.2985,1.2985,1.2984,1.2871,1.2868,1.2865,1.2862,1.2812,1.2813,1.2814,0,0,0,0,0,0,0,0,0,0,0,0,0,0,0,1.3033,1.3033,0,1.2985,1.2985,1.2984,1.287,1.2868,1.2866,1.2863,1.2812,1.2813,1.2814,0,0,0,0,0,0,0,0,0,0,0,0,0,0,0,0,0,0,0,0,0,0,0,0,0,0,0,0,0,0,0,0,0,0,0,0,0,0,0,0,0,0,0,0,0,0,0,0,0,0,0,0,0,0,0,0,0,0,0,0,0,0,0,0,0,0,0,0,0]}]]]